Time,TemperatureF,DewpointF,PressureIn,WindDirection,WindDirectionDegrees,WindSpeedMPH,WindSpeedGustMPH,Humidity,HourlyPrecipIn,Conditions,Clouds,dailyrainin,SoftwareType,DateUTC
2013-03-17 00:01:00,52.2,34.1,29.75,NNE,19,1.0,2.0,50,0.00,,,0.00,LWC V2.11 B50,2013-03-17 06:01:00,
2013-03-17 00:06:00,52.1,34.5,29.75,North,355,2.0,5.0,51,0.00,,,0.00,LWC V2.11 B50,2013-03-17 06:06:00,
2013-03-17 00:11:00,52.0,34.4,29.75,NE,44,0.0,4.0,51,0.00,,,0.00,LWC V2.11 B50,2013-03-17 06:11:00,
2013-03-17 00:16:00,51.9,34.3,29.76,NE,34,0.0,0.0,51,0.00,,,0.00,LWC V2.11 B50,2013-03-17 06:16:00,
2013-03-17 00:21:00,51.8,34.3,29.75,ENE,67,0.0,0.0,51,0.00,,,0.00,LWC V2.11 B50,2013-03-17 06:21:00,
2013-03-17 00:26:00,51.7,34.6,29.76,ENE,67,0.0,0.0,52,0.00,,,0.00,LWC V2.11 B50,2013-03-17 06:26:00,
2013-03-17 00:31:00,51.5,34.5,29.75,ENE,67,0.0,0.0,52,0.00,,,0.00,LWC V2.11 B50,2013-03-17 06:31:00,
2013-03-17 00:36:00,51.3,34.3,29.75,ENE,71,0.0,0.0,52,0.00,,,0.00,LWC V2.11 B50,2013-03-17 06:36:00,
2013-03-17 00:37:00,51.2,34.2,29.75,ENE,71,0.0,0.0,52,0.00,,,0.00,LWC V2.11 B50,2013-03-17 06:37:00,
2013-03-17 00:41:00,51.1,34.1,29.75,SSW,198,0.0,0.0,52,0.00,,,0.00,LWC V2.11 B50,2013-03-17 06:41:00,
2013-03-17 00:46:00,51.1,34.6,29.75,WSW,246,0.0,0.0,53,0.00,,,0.00,LWC V2.11 B50,2013-03-17 06:46:00,
2013-03-17 00:51:00,51.2,34.2,29.75,WSW,246,0.0,0.0,52,0.00,,,0.00,LWC V2.11 B50,2013-03-17 06:51:00,
2013-03-17 00:56:00,51.1,34.6,29.75,WSW,246,0.0,0.0,53,0.00,,,0.00,LWC V2.11 B50,2013-03-17 06:56:00,
2013-03-17 01:01:00,51.0,34.5,29.75,WSW,246,0.0,0.0,53,0.00,,,0.00,LWC V2.11 B50,2013-03-17 07:01:00,
2013-03-17 01:06:00,50.9,34.4,29.75,WSW,246,0.0,0.0,53,0.00,,,0.00,LWC V2.11 B50,2013-03-17 07:06:00,
2013-03-17 01:11:00,50.7,34.2,29.75,WSW,246,0.0,0.0,53,0.00,,,0.00,LWC V2.11 B50,2013-03-17 07:11:00,
2013-03-17 01:16:00,50.5,34.0,29.75,WSW,246,0.0,0.0,53,0.00,,,0.00,LWC V2.11 B50,2013-03-17 07:16:00,
2013-03-17 01:21:00,50.3,33.8,29.74,WSW,246,0.0,0.0,53,0.00,,,0.00,LWC V2.11 B50,2013-03-17 07:21:00,
2013-03-17 01:26:00,50.0,33.5,29.75,WNW,289,2.0,3.0,53,0.00,,,0.00,LWC V2.11 B50,2013-03-17 07:26:00,
2013-03-17 01:31:00,50.0,33.5,29.74,NW,326,1.0,2.0,53,0.00,,,0.00,LWC V2.11 B50,2013-03-17 07:31:00,
2013-03-17 01:36:00,50.0,34.0,29.74,NW,312,0.0,1.0,54,0.00,,,0.00,LWC V2.11 B50,2013-03-17 07:36:00,
2013-03-17 01:41:00,50.0,34.0,29.74,WNW,284,0.0,2.0,54,0.00,,,0.00,LWC V2.11 B50,2013-03-17 07:41:00,
2013-03-17 01:46:00,49.9,33.9,29.74,WNW,284,0.0,0.0,54,0.00,,,0.00,LWC V2.11 B50,2013-03-17 07:46:00,
2013-03-17 01:51:00,49.8,33.8,29.74,WNW,284,0.0,0.0,54,0.00,,,0.00,LWC V2.11 B50,2013-03-17 07:51:00,
2013-03-17 01:56:00,49.5,33.1,29.74,WNW,284,0.0,0.0,53,0.00,,,0.00,LWC V2.11 B50,2013-03-17 07:56:00,
2013-03-17 02:01:00,49.2,32.8,29.74,WNW,284,0.0,0.0,53,0.00,,,0.00,LWC V2.11 B50,2013-03-17 08:01:00,
2013-03-17 02:02:00,49.2,32.8,29.74,WNW,284,0.0,0.0,53,0.00,,,0.00,LWC V2.11 B50,2013-03-17 08:02:00,
2013-03-17 02:07:00,48.9,33.5,29.74,WNW,284,0.0,0.0,55,0.00,,,0.00,LWC V2.11 B50,2013-03-17 08:07:00,
2013-03-17 02:12:00,48.8,33.4,29.74,WNW,284,0.0,0.0,55,0.00,,,0.00,LWC V2.11 B50,2013-03-17 08:12:00,
2013-03-17 02:16:00,48.8,32.9,29.75,WNW,290,0.0,1.0,54,0.00,,,0.00,LWC V2.11 B50,2013-03-17 08:16:00,
2013-03-17 02:17:00,48.7,32.8,29.75,WNW,290,0.0,1.0,54,0.00,,,0.00,LWC V2.11 B50,2013-03-17 08:17:00,
2013-03-17 02:21:00,48.5,32.6,29.75,West,263,0.0,0.0,54,0.00,,,0.00,LWC V2.11 B50,2013-03-17 08:21:00,
2013-03-17 02:26:00,48.2,32.8,29.75,West,263,0.0,0.0,55,0.00,,,0.00,LWC V2.11 B50,2013-03-17 08:26:00,
2013-03-17 02:31:00,48.0,33.1,29.75,West,263,0.0,0.0,56,0.00,,,0.00,LWC V2.11 B50,2013-03-17 08:31:00,
2013-03-17 02:36:00,47.9,33.0,29.75,West,273,0.0,1.0,56,0.00,,,0.00,LWC V2.11 B50,2013-03-17 08:36:00,
2013-03-17 02:37:00,47.9,33.0,29.75,West,273,0.0,1.0,56,0.00,,,0.00,LWC V2.11 B50,2013-03-17 08:37:00,
2013-03-17 02:41:00,47.8,32.9,29.75,West,273,0.0,0.0,56,0.00,,,0.00,LWC V2.11 B50,2013-03-17 08:41:00,
2013-03-17 02:46:00,47.6,32.2,29.75,West,273,0.0,0.0,55,0.00,,,0.00,LWC V2.11 B50,2013-03-17 08:46:00,
2013-03-17 02:51:00,47.3,32.4,29.74,West,273,0.0,0.0,56,0.00,,,0.00,LWC V2.11 B50,2013-03-17 08:51:00,
2013-03-17 02:56:00,46.8,31.9,29.74,West,273,0.0,0.0,56,0.00,,,0.00,LWC V2.11 B50,2013-03-17 08:56:00,
2013-03-17 03:01:00,46.3,31.5,29.74,West,273,0.0,1.0,56,0.00,,,0.00,LWC V2.11 B50,2013-03-17 09:01:00,
2013-03-17 03:02:00,46.2,31.4,29.74,West,273,0.0,1.0,56,0.00,,,0.00,LWC V2.11 B50,2013-03-17 09:02:00,
2013-03-17 03:06:00,45.9,32.4,29.74,West,273,0.0,1.0,59,0.00,,,0.00,LWC V2.11 B50,2013-03-17 09:06:00,
2013-03-17 03:11:00,45.9,32.8,29.74,West,273,0.0,1.0,60,0.00,,,0.00,LWC V2.11 B50,2013-03-17 09:11:00,
2013-03-17 03:16:00,45.9,32.4,29.74,West,273,0.0,0.0,59,0.00,,,0.00,LWC V2.11 B50,2013-03-17 09:16:00,
2013-03-17 03:21:00,45.6,31.7,29.74,West,273,0.0,0.0,58,0.00,,,0.00,LWC V2.11 B50,2013-03-17 09:21:00,
2013-03-17 03:26:00,45.3,31.8,29.74,West,273,0.0,0.0,59,0.00,,,0.00,LWC V2.11 B50,2013-03-17 09:26:00,
2013-03-17 03:31:00,45.0,32.4,29.74,West,273,0.0,0.0,61,0.00,,,0.00,LWC V2.11 B50,2013-03-17 09:31:00,
2013-03-17 03:36:00,45.0,32.8,29.74,West,273,0.0,1.0,62,0.00,,,0.00,LWC V2.11 B50,2013-03-17 09:36:00,
2013-03-17 03:41:00,45.3,33.1,29.74,West,273,0.0,0.0,62,0.00,,,0.00,LWC V2.11 B50,2013-03-17 09:41:00,
2013-03-17 03:46:00,45.3,32.2,29.74,West,273,0.0,0.0,60,0.00,,,0.00,LWC V2.11 B50,2013-03-17 09:46:00,
2013-03-17 03:51:00,45.2,32.6,29.74,West,273,0.0,0.0,61,0.00,,,0.00,LWC V2.11 B50,2013-03-17 09:51:00,
2013-03-17 03:56:00,45.2,32.6,29.74,West,273,0.0,1.0,61,0.00,,,0.00,LWC V2.11 B50,2013-03-17 09:56:00,
2013-03-17 04:01:00,45.2,33.0,29.74,West,273,0.0,0.0,62,0.00,,,0.00,LWC V2.11 B50,2013-03-17 10:01:00,
2013-03-17 04:06:00,45.2,33.0,29.74,West,273,0.0,0.0,62,0.00,,,0.00,LWC V2.11 B50,2013-03-17 10:06:00,
2013-03-17 04:11:00,45.2,33.0,29.74,West,273,0.0,0.0,62,0.00,,,0.00,LWC V2.11 B50,2013-03-17 10:11:00,
2013-03-17 04:16:00,45.1,32.5,29.74,West,276,1.0,2.0,61,0.00,,,0.00,LWC V2.11 B50,2013-03-17 10:16:00,
2013-03-17 04:21:00,45.0,32.4,29.74,West,276,0.0,0.0,61,0.00,,,0.00,LWC V2.11 B50,2013-03-17 10:21:00,
2013-03-17 04:26:00,44.8,32.6,29.73,West,276,0.0,0.0,62,0.00,,,0.00,LWC V2.11 B50,2013-03-17 10:26:00,
2013-03-17 04:31:00,44.7,32.5,29.74,West,276,0.0,0.0,62,0.00,,,0.00,LWC V2.11 B50,2013-03-17 10:31:00,
2013-03-17 04:36:00,44.5,31.9,29.74,West,276,0.0,0.0,61,0.00,,,0.00,LWC V2.11 B50,2013-03-17 10:36:00,
2013-03-17 04:41:00,44.1,31.5,29.74,West,276,0.0,0.0,61,0.00,,,0.00,LWC V2.11 B50,2013-03-17 10:41:00,
2013-03-17 04:46:00,43.7,31.5,29.74,West,276,0.0,0.0,62,0.00,,,0.00,LWC V2.11 B50,2013-03-17 10:46:00,
2013-03-17 04:51:00,43.4,31.7,29.74,West,276,0.0,0.0,63,0.00,,,0.00,LWC V2.11 B50,2013-03-17 10:51:00,
2013-03-17 04:56:00,43.1,31.4,29.74,West,276,0.0,0.0,63,0.00,,,0.00,LWC V2.11 B50,2013-03-17 10:56:00,
2013-03-17 05:01:00,42.8,31.5,29.74,West,276,0.0,0.0,64,0.00,,,0.00,LWC V2.11 B50,2013-03-17 11:01:00,
2013-03-17 05:06:00,42.4,31.5,29.74,West,276,0.0,0.0,65,0.00,,,0.00,LWC V2.11 B50,2013-03-17 11:06:00,
2013-03-17 05:11:00,42.1,31.6,29.74,West,276,0.0,0.0,66,0.00,,,0.00,LWC V2.11 B50,2013-03-17 11:11:00,
2013-03-17 05:16:00,41.8,31.3,29.74,West,276,0.0,0.0,66,0.00,,,0.00,LWC V2.11 B50,2013-03-17 11:16:00,
2013-03-17 05:21:00,41.7,31.2,29.74,West,276,0.0,0.0,66,0.00,,,0.00,LWC V2.11 B50,2013-03-17 11:21:00,
2013-03-17 05:26:00,41.8,32.0,29.74,West,276,0.0,0.0,68,0.00,,,0.00,LWC V2.11 B50,2013-03-17 11:26:00,
2013-03-17 05:31:00,41.7,31.6,29.74,West,276,0.0,0.0,67,0.00,,,0.00,LWC V2.11 B50,2013-03-17 11:31:00,
2013-03-17 05:36:00,41.6,31.5,29.74,West,276,0.0,0.0,67,0.00,,,0.00,LWC V2.11 B50,2013-03-17 11:36:00,
2013-03-17 05:37:00,41.6,31.5,29.74,West,276,0.0,0.0,67,0.00,,,0.00,LWC V2.11 B50,2013-03-17 11:37:00,
2013-03-17 05:42:00,41.4,31.3,29.74,West,276,0.0,0.0,67,0.00,,,0.00,LWC V2.11 B50,2013-03-17 11:42:00,
2013-03-17 05:46:00,41.2,30.7,29.74,West,276,0.0,0.0,66,0.00,,,0.00,LWC V2.11 B50,2013-03-17 11:46:00,
2013-03-17 05:51:00,41.1,31.4,29.74,WNW,296,0.0,0.0,68,0.00,,,0.00,LWC V2.11 B50,2013-03-17 11:51:00,
2013-03-17 05:56:00,40.9,31.2,29.74,WNW,296,0.0,0.0,68,0.00,,,0.00,LWC V2.11 B50,2013-03-17 11:56:00,
2013-03-17 06:01:00,40.7,30.6,29.75,WNW,296,0.0,0.0,67,0.00,,,0.00,LWC V2.11 B50,2013-03-17 12:01:00,
2013-03-17 06:06:00,40.3,30.2,29.74,WNW,296,0.0,0.0,67,0.00,,,0.00,LWC V2.11 B50,2013-03-17 12:06:00,
2013-03-17 06:11:00,40.1,30.4,29.74,WNW,296,0.0,0.0,68,0.00,,,0.00,LWC V2.11 B50,2013-03-17 12:11:00,
2013-03-17 06:16:00,39.9,30.6,29.74,WNW,296,0.0,0.0,69,0.00,,,0.00,LWC V2.11 B50,2013-03-17 12:16:00,
2013-03-17 06:21:00,39.8,30.8,29.75,WNW,296,0.0,0.0,70,0.00,,,0.00,LWC V2.11 B50,2013-03-17 12:21:00,
2013-03-17 06:26:00,39.8,30.5,29.74,WNW,296,0.0,1.0,69,0.00,,,0.00,LWC V2.11 B50,2013-03-17 12:26:00,
2013-03-17 06:31:00,39.7,30.4,29.74,NW,306,0.0,1.0,69,0.00,,,0.00,LWC V2.11 B50,2013-03-17 12:31:00,
2013-03-17 06:36:00,39.8,30.5,29.74,NW,309,0.0,0.0,69,0.00,,,0.00,LWC V2.11 B50,2013-03-17 12:36:00,
2013-03-17 06:41:00,39.9,30.6,29.75,NW,309,0.0,0.0,69,0.00,,,0.00,LWC V2.11 B50,2013-03-17 12:41:00,
2013-03-17 06:46:00,39.9,30.9,29.75,NW,309,0.0,0.0,70,0.00,,,0.00,LWC V2.11 B50,2013-03-17 12:46:00,
2013-03-17 06:51:00,40.0,30.7,29.75,NW,309,0.0,0.0,69,0.00,,,0.00,LWC V2.11 B50,2013-03-17 12:51:00,
2013-03-17 06:56:00,40.1,30.8,29.75,NW,309,0.0,0.0,69,0.00,,,0.00,LWC V2.11 B50,2013-03-17 12:56:00,
2013-03-17 07:01:00,40.2,30.9,29.75,NW,309,0.0,0.0,69,0.00,,,0.00,LWC V2.11 B50,2013-03-17 13:01:00,
2013-03-17 07:06:00,40.3,31.0,29.75,NW,309,0.0,0.0,69,0.00,,,0.00,LWC V2.11 B50,2013-03-17 13:06:00,
2013-03-17 07:11:00,40.2,30.9,29.75,NW,309,0.0,0.0,69,0.00,,,0.00,LWC V2.11 B50,2013-03-17 13:11:00,
2013-03-17 07:16:00,40.0,30.3,29.75,NW,309,0.0,0.0,68,0.00,,,0.00,LWC V2.11 B50,2013-03-17 13:16:00,
2013-03-17 07:21:00,39.7,30.0,29.75,NW,309,0.0,0.0,68,0.00,,,0.00,LWC V2.11 B50,2013-03-17 13:21:00,
2013-03-17 07:26:00,39.3,29.6,29.75,NW,309,0.0,0.0,68,0.00,,,0.00,LWC V2.11 B50,2013-03-17 13:26:00,
2013-03-17 07:31:00,39.2,30.3,29.75,NW,309,0.0,0.0,70,0.00,,,0.00,LWC V2.11 B50,2013-03-17 13:31:00,
2013-03-17 07:36:00,39.4,30.4,29.75,NW,309,0.0,0.0,70,0.00,,,0.00,LWC V2.11 B50,2013-03-17 13:36:00,
2013-03-17 07:41:00,39.8,30.8,29.75,NW,309,0.0,0.0,70,0.00,,,0.00,LWC V2.11 B50,2013-03-17 13:41:00,
2013-03-17 07:46:00,40.5,31.5,29.75,NW,309,0.0,0.0,70,0.00,,,0.00,LWC V2.11 B50,2013-03-17 13:46:00,
2013-03-17 07:51:00,41.2,32.2,29.75,NW,309,0.0,0.0,70,0.00,,,0.00,LWC V2.11 B50,2013-03-17 13:51:00,
2013-03-17 07:56:00,42.2,32.4,29.75,NW,309,0.0,0.0,68,0.00,,,0.00,LWC V2.11 B50,2013-03-17 13:56:00,
2013-03-17 08:01:00,43.0,32.4,29.75,NW,309,0.0,0.0,66,0.00,,,0.00,LWC V2.11 B50,2013-03-17 14:01:00,
2013-03-17 08:06:00,43.7,32.7,29.75,NW,309,0.0,0.0,65,0.00,,,0.00,LWC V2.11 B50,2013-03-17 14:06:00,
2013-03-17 08:11:00,44.6,33.2,29.74,NW,309,0.0,0.0,64,0.00,,,0.00,LWC V2.11 B50,2013-03-17 14:11:00,
2013-03-17 08:16:00,45.5,33.6,29.75,South,173,0.0,1.0,63,0.00,,,0.00,LWC V2.11 B50,2013-03-17 14:16:00,
2013-03-17 08:21:00,46.2,33.5,29.75,South,178,0.0,1.0,61,0.00,,,0.00,LWC V2.11 B50,2013-03-17 14:21:00,
2013-03-17 08:26:00,47.0,33.4,29.75,SSE,160,0.0,0.0,59,0.00,,,0.00,LWC V2.11 B50,2013-03-17 14:26:00,
2013-03-17 08:31:00,47.9,33.8,29.75,SSE,163,1.0,1.0,58,0.00,,,0.00,LWC V2.11 B50,2013-03-17 14:31:00,
2013-03-17 08:36:00,48.5,33.1,29.74,SE,142,0.0,3.0,55,0.00,,,0.00,LWC V2.11 B50,2013-03-17 14:36:00,
2013-03-17 08:41:00,48.7,33.3,29.74,South,190,0.0,0.0,55,0.00,,,0.00,LWC V2.11 B50,2013-03-17 14:41:00,
2013-03-17 08:46:00,48.5,33.1,29.74,South,187,0.0,0.0,55,0.00,,,0.00,LWC V2.11 B50,2013-03-17 14:46:00,
2013-03-17 08:51:00,48.4,33.0,29.74,South,187,0.0,0.0,55,0.00,,,0.00,LWC V2.11 B50,2013-03-17 14:51:00,
2013-03-17 08:56:00,48.4,33.0,29.74,South,183,0.0,1.0,55,0.00,,,0.00,LWC V2.11 B50,2013-03-17 14:56:00,
2013-03-17 09:01:00,48.5,33.1,29.74,South,182,0.0,1.0,55,0.00,,,0.00,LWC V2.11 B50,2013-03-17 15:01:00,
2013-03-17 09:06:00,48.8,33.4,29.74,SSE,163,0.0,2.0,55,0.00,,,0.00,LWC V2.11 B50,2013-03-17 15:06:00,
2013-03-17 09:11:00,49.6,33.6,29.74,South,188,0.0,3.0,54,0.00,,,0.00,LWC V2.11 B50,2013-03-17 15:11:00,
2013-03-17 09:16:00,50.1,33.6,29.75,South,189,0.0,1.0,53,0.00,,,0.00,LWC V2.11 B50,2013-03-17 15:16:00,
2013-03-17 09:21:00,50.4,33.9,29.74,South,188,1.0,3.0,53,0.00,,,0.00,LWC V2.11 B50,2013-03-17 15:21:00,
2013-03-17 09:26:00,50.6,34.1,29.74,SSW,213,1.0,4.0,53,0.00,,,0.00,LWC V2.11 B50,2013-03-17 15:26:00,
2013-03-17 09:31:00,50.5,33.5,29.74,South,177,3.0,4.0,52,0.00,,,0.00,LWC V2.11 B50,2013-03-17 15:31:00,
2013-03-17 09:36:00,50.4,33.9,29.74,SSE,157,4.0,4.0,53,0.00,,,0.00,LWC V2.11 B50,2013-03-17 15:36:00,
2013-03-17 09:41:00,50.3,33.8,29.74,SSW,209,4.0,4.0,53,0.00,,,0.00,LWC V2.11 B50,2013-03-17 15:41:00,
2013-03-17 09:46:00,50.4,34.4,29.74,SSW,211,2.0,6.0,54,0.00,,,0.00,LWC V2.11 B50,2013-03-17 15:46:00,
2013-03-17 09:51:00,50.6,34.6,29.74,South,189,1.0,4.0,54,0.00,,,0.00,LWC V2.11 B50,2013-03-17 15:51:00,
2013-03-17 09:56:00,50.9,34.9,29.74,South,173,1.0,3.0,54,0.00,,,0.00,LWC V2.11 B50,2013-03-17 15:56:00,
2013-03-17 10:01:00,51.2,34.7,29.74,SSW,194,2.0,3.0,53,0.00,,,0.00,LWC V2.11 B50,2013-03-17 16:01:00,
2013-03-17 10:06:00,51.6,35.0,29.74,SSE,152,0.0,4.0,53,0.00,,,0.00,LWC V2.11 B50,2013-03-17 16:06:00,
2013-03-17 10:11:00,51.7,34.6,29.74,South,178,1.0,4.0,52,0.00,,,0.00,LWC V2.11 B50,2013-03-17 16:11:00,
2013-03-17 10:16:00,51.9,34.8,29.74,SE,130,2.0,4.0,52,0.00,,,0.00,LWC V2.11 B50,2013-03-17 16:16:00,
2013-03-17 10:21:00,52.1,35.0,29.74,SW,231,3.0,3.0,52,0.00,,,0.00,LWC V2.11 B50,2013-03-17 16:21:00,
2013-03-17 10:26:00,52.3,34.7,29.74,SSW,194,1.0,4.0,51,0.00,,,0.00,LWC V2.11 B50,2013-03-17 16:26:00,
2013-03-17 10:31:00,52.8,34.7,29.74,SW,219,0.0,4.0,50,0.00,,,0.00,LWC V2.11 B50,2013-03-17 16:31:00,
2013-03-17 10:36:00,53.3,34.6,29.73,SSE,148,2.0,4.0,49,0.00,,,0.00,LWC V2.11 B50,2013-03-17 16:36:00,
2013-03-17 10:41:00,53.6,34.9,29.74,SSE,163,3.0,4.0,49,0.00,,,0.00,LWC V2.11 B50,2013-03-17 16:41:00,
2013-03-17 10:46:00,54.2,34.4,29.73,South,169,1.0,5.0,47,0.00,,,0.00,LWC V2.11 B50,2013-03-17 16:46:00,
2013-03-17 10:51:00,54.2,34.4,29.73,SSE,147,4.0,4.0,47,0.00,,,0.00,LWC V2.11 B50,2013-03-17 16:51:00,
2013-03-17 10:56:00,54.1,34.3,29.74,South,173,0.0,3.0,47,0.00,,,0.00,LWC V2.11 B50,2013-03-17 16:56:00,
2013-03-17 11:01:00,54.1,34.3,29.76,SSW,202,0.0,0.0,47,0.00,,,0.00,LWC V2.11 B50,2013-03-17 17:01:00,
2013-03-17 11:06:00,54.0,34.2,29.76,SSW,202,0.0,0.0,47,0.00,,,0.00,LWC V2.11 B50,2013-03-17 17:06:00,
2013-03-17 11:11:00,54.1,34.3,29.75,SSW,202,0.0,0.0,47,0.00,,,0.00,LWC V2.11 B50,2013-03-17 17:11:00,
2013-03-17 11:16:00,54.2,33.9,29.76,SSW,202,0.0,0.0,46,0.00,,,0.00,LWC V2.11 B50,2013-03-17 17:16:00,
2013-03-17 11:21:00,54.3,34.0,29.76,SSW,202,0.0,0.0,46,0.00,,,0.00,LWC V2.11 B50,2013-03-17 17:21:00,
2013-03-17 11:26:00,54.4,34.1,29.76,SSW,202,0.0,1.0,46,0.00,,,0.00,LWC V2.11 B50,2013-03-17 17:26:00,
2013-03-17 11:31:00,54.4,34.1,29.76,SSW,202,0.0,0.0,46,0.00,,,0.00,LWC V2.11 B50,2013-03-17 17:31:00,
2013-03-17 11:36:00,54.5,35.7,29.76,NNE,29,1.0,2.0,49,0.00,,,0.00,LWC V2.11 B50,2013-03-17 17:36:00,
2013-03-17 11:41:00,54.2,34.9,29.77,West,270,8.0,13.0,48,0.00,,,0.00,LWC V2.11 B50,2013-03-17 17:41:00,
2013-03-17 11:46:00,53.9,37.2,29.78,East,83,2.0,10.0,53,0.00,,,0.00,LWC V2.11 B50,2013-03-17 17:46:00,
2013-03-17 11:51:00,52.7,37.9,29.76,WSW,257,0.0,2.0,57,0.00,,,0.00,LWC V2.11 B50,2013-03-17 17:51:00,
2013-03-17 11:56:00,52.8,39.3,29.76,North,11,1.0,4.0,60,0.00,,,0.00,LWC V2.11 B50,2013-03-17 17:56:00,
2013-03-17 12:01:00,54.2,38.4,29.75,NNW,327,0.0,6.0,55,0.00,,,0.00,LWC V2.11 B50,2013-03-17 18:01:00,
2013-03-17 12:06:00,56.3,37.4,29.74,NNE,15,2.0,3.0,49,0.00,,,0.00,LWC V2.11 B50,2013-03-17 18:06:00,
2013-03-17 12:11:00,58.1,36.3,29.74,NE,49,3.0,5.0,44,0.00,,,0.00,LWC V2.11 B50,2013-03-17 18:11:00,
2013-03-17 12:16:00,59.5,36.4,29.74,NE,38,5.0,5.0,42,0.00,,,0.00,LWC V2.11 B50,2013-03-17 18:16:00,
2013-03-17 12:21:00,60.3,35.2,29.73,ENE,59,5.0,8.0,39,0.00,,,0.00,LWC V2.11 B50,2013-03-17 18:21:00,
2013-03-17 12:26:00,60.7,35.6,29.73,NNE,30,2.0,4.0,39,0.00,,,0.00,LWC V2.11 B50,2013-03-17 18:26:00,
2013-03-17 12:31:00,61.2,34.7,29.72,WNW,299,1.0,5.0,37,0.00,,,0.00,LWC V2.11 B50,2013-03-17 18:31:00,
2013-03-17 12:36:00,61.4,34.2,29.72,WSW,246,1.0,4.0,36,0.00,,,0.00,LWC V2.11 B50,2013-03-17 18:36:00,
2013-03-17 12:41:00,61.5,32.1,29.72,NNW,329,11.0,14.0,33,0.00,,,0.00,LWC V2.11 B50,2013-03-17 18:41:00,
2013-03-17 12:46:00,61.4,32.0,29.71,NE,36,4.0,8.0,33,0.00,,,0.00,LWC V2.11 B50,2013-03-17 18:46:00,
2013-03-17 12:51:00,61.6,32.2,29.71,NE,35,3.0,7.0,33,0.00,,,0.00,LWC V2.11 B50,2013-03-17 18:51:00,
2013-03-17 12:56:00,61.7,31.5,29.70,West,267,4.0,9.0,32,0.00,,,0.00,LWC V2.11 B50,2013-03-17 18:56:00,
2013-03-17 13:01:00,62.4,31.4,29.70,East,93,3.0,7.0,31,0.00,,,0.00,LWC V2.11 B50,2013-03-17 19:01:00,
2013-03-17 13:06:00,62.9,31.8,29.70,NNW,348,6.0,9.0,31,0.00,,,0.00,LWC V2.11 B50,2013-03-17 19:06:00,
2013-03-17 13:07:00,62.9,31.8,29.70,NNW,348,6.0,9.0,31,0.00,,,0.00,LWC V2.11 B50,2013-03-17 19:07:00,
2013-03-17 13:12:00,63.3,32.2,29.69,NNE,14,5.0,5.0,31,0.00,,,0.00,LWC V2.11 B50,2013-03-17 19:12:00,
2013-03-17 13:17:00,64.5,31.5,29.69,NE,55,2.0,5.0,29,0.00,,,0.00,LWC V2.11 B50,2013-03-17 19:17:00,
2013-03-17 13:21:00,65.1,30.3,29.68,NW,319,6.0,9.0,27,0.00,,,0.00,LWC V2.11 B50,2013-03-17 19:21:00,
2013-03-17 13:26:00,65.5,29.7,29.68,NW,322,2.0,6.0,26,0.00,,,0.00,LWC V2.11 B50,2013-03-17 19:26:00,
2013-03-17 13:31:00,66.2,29.3,29.67,West,275,0.0,7.0,25,0.00,,,0.00,LWC V2.11 B50,2013-03-17 19:31:00,
2013-03-17 13:36:00,66.7,29.8,29.67,NW,311,0.0,3.0,25,0.00,,,0.00,LWC V2.11 B50,2013-03-17 19:36:00,
2013-03-17 13:41:00,67.2,32.1,29.67,ESE,117,0.0,2.0,27,0.00,,,0.00,LWC V2.11 B50,2013-03-17 19:41:00,
2013-03-17 13:46:00,67.3,32.2,29.66,ESE,108,4.0,9.0,27,0.00,,,0.00,LWC V2.11 B50,2013-03-17 19:46:00,
2013-03-17 13:51:00,66.7,25.5,29.65,WNW,290,7.0,11.0,21,0.00,,,0.00,LWC V2.11 B50,2013-03-17 19:51:00,
2013-03-17 13:56:00,66.7,24.4,29.65,WNW,291,5.0,13.0,20,0.00,,,0.00,LWC V2.11 B50,2013-03-17 19:56:00,
2013-03-17 14:01:00,66.4,24.1,29.65,WNW,300,5.0,12.0,20,0.00,,,0.00,LWC V2.11 B50,2013-03-17 20:01:00,
2013-03-17 14:06:00,66.8,23.2,29.64,NNW,327,9.0,22.0,19,0.00,,,0.00,LWC V2.11 B50,2013-03-17 20:06:00,
2013-03-17 14:11:00,67.1,22.2,29.64,WNW,292,4.0,14.0,18,0.00,,,0.00,LWC V2.11 B50,2013-03-17 20:11:00,
2013-03-17 14:16:00,67.4,22.4,29.64,NW,312,11.0,24.0,18,0.00,,,0.00,LWC V2.11 B50,2013-03-17 20:16:00,
2013-03-17 14:21:00,68.0,22.9,29.64,WNW,286,16.0,17.0,18,0.00,,,0.00,LWC V2.11 B50,2013-03-17 20:21:00,
2013-03-17 14:26:00,68.7,20.7,29.62,WNW,294,7.0,15.0,16,0.00,,,0.00,LWC V2.11 B50,2013-03-17 20:26:00,
2013-03-17 14:31:00,69.0,19.4,29.63,NNW,336,13.0,14.0,15,0.00,,,0.00,LWC V2.11 B50,2013-03-17 20:31:00,
2013-03-17 14:36:00,69.2,18.0,29.63,West,274,10.0,16.0,14,0.00,,,0.00,LWC V2.11 B50,2013-03-17 20:36:00,
2013-03-17 14:41:00,69.4,16.4,29.63,West,279,7.0,13.0,13,0.00,,,0.00,LWC V2.11 B50,2013-03-17 20:41:00,
2013-03-17 14:46:00,69.1,17.9,29.62,WNW,298,9.0,13.0,14,0.00,,,0.00,LWC V2.11 B50,2013-03-17 20:46:00,
2013-03-17 14:51:00,69.1,16.2,29.62,SW,223,4.0,14.0,13,0.00,,,0.00,LWC V2.11 B50,2013-03-17 20:51:00,
2013-03-17 14:56:00,69.3,12.5,29.62,West,277,18.0,18.0,11,0.00,,,0.00,LWC V2.11 B50,2013-03-17 20:56:00,
2013-03-17 15:01:00,69.8,8.4,29.62,West,273,11.0,19.0,9,0.00,,,0.00,LWC V2.11 B50,2013-03-17 21:01:00,
2013-03-17 15:06:00,70.0,10.9,29.62,NW,312,5.0,13.0,10,0.00,,,0.00,LWC V2.11 B50,2013-03-17 21:06:00,
2013-03-17 15:11:00,69.9,8.5,29.61,NW,326,23.0,23.0,9,0.00,,,0.00,LWC V2.11 B50,2013-03-17 21:11:00,
2013-03-17 15:16:00,69.9,10.9,29.61,NNW,335,19.0,19.0,10,0.00,,,0.00,LWC V2.11 B50,2013-03-17 21:16:00,
2013-03-17 15:21:00,69.8,8.4,29.61,West,269,9.0,15.0,9,0.00,,,0.00,LWC V2.11 B50,2013-03-17 21:21:00,
2013-03-17 15:26:00,70.2,8.7,29.62,NW,311,13.0,14.0,9,0.00,,,0.00,LWC V2.11 B50,2013-03-17 21:26:00,
2013-03-17 15:31:00,70.2,8.7,29.61,West,277,17.0,17.0,9,0.00,,,0.00,LWC V2.11 B50,2013-03-17 21:31:00,
2013-03-17 15:36:00,70.5,11.3,29.61,WNW,296,5.0,9.0,10,0.00,,,0.00,LWC V2.11 B50,2013-03-17 21:36:00,
2013-03-17 15:41:00,70.9,11.6,29.60,WNW,283,7.0,11.0,10,0.00,,,0.00,LWC V2.11 B50,2013-03-17 21:41:00,
2013-03-17 15:46:00,70.6,9.0,29.61,WNW,294,17.0,19.0,9,0.00,,,0.00,LWC V2.11 B50,2013-03-17 21:46:00,
2013-03-17 15:51:00,70.4,6.3,29.61,NNW,327,16.0,25.0,8,0.00,,,0.00,LWC V2.11 B50,2013-03-17 21:51:00,
2013-03-17 15:56:00,70.1,8.7,29.61,WNW,302,16.0,22.0,9,0.00,,,0.00,LWC V2.11 B50,2013-03-17 21:56:00,
2013-03-17 16:01:00,69.7,10.7,29.61,WNW,293,7.0,24.0,10,0.00,,,0.00,LWC V2.11 B50,2013-03-17 22:01:00,
2013-03-17 16:06:00,69.8,10.8,29.61,NW,309,15.0,25.0,10,0.00,,,0.00,LWC V2.11 B50,2013-03-17 22:06:00,
2013-03-17 16:11:00,69.8,10.8,29.61,WSW,257,11.0,16.0,10,0.00,,,0.00,LWC V2.11 B50,2013-03-17 22:11:00,
2013-03-17 16:15:00,69.0,10.2,29.61,WNW,299,10.0,18.0,10,0.00,,,0.00,LWC V2.11 B50,2013-03-17 22:15:00,
2013-03-17 16:16:00,68.8,10.0,29.61,WNW,288,3.0,13.0,10,0.00,,,0.00,LWC V2.11 B50,2013-03-17 22:16:00,
2013-03-17 16:21:00,69.2,10.3,29.61,WNW,294,6.0,17.0,10,0.00,,,0.00,LWC V2.11 B50,2013-03-17 22:21:00,
2013-03-17 16:26:00,69.7,10.7,29.61,SW,225,8.0,18.0,10,0.00,,,0.00,LWC V2.11 B50,2013-03-17 22:26:00,
2013-03-17 16:31:00,69.5,10.6,29.61,West,271,9.0,17.0,10,0.00,,,0.00,LWC V2.11 B50,2013-03-17 22:31:00,
2013-03-17 16:36:00,69.5,10.6,29.61,WNW,293,8.0,15.0,10,0.00,,,0.00,LWC V2.11 B50,2013-03-17 22:36:00,
2013-03-17 16:41:00,69.4,10.5,29.61,WNW,290,10.0,19.0,10,0.00,,,0.00,LWC V2.11 B50,2013-03-17 22:41:00,
2013-03-17 16:46:00,68.9,10.1,29.61,SW,234,4.0,15.0,10,0.00,,,0.00,LWC V2.11 B50,2013-03-17 22:46:00,
2013-03-17 16:51:00,69.0,12.3,29.60,NW,323,11.0,16.0,11,0.00,,,0.00,LWC V2.11 B50,2013-03-17 22:51:00,
2013-03-17 16:56:00,68.7,10.0,29.60,SW,234,10.0,16.0,10,0.00,,,0.00,LWC V2.11 B50,2013-03-17 22:56:00,
2013-03-17 17:01:00,68.8,7.7,29.60,West,274,13.0,19.0,9,0.00,,,0.00,LWC V2.11 B50,2013-03-17 23:01:00,
2013-03-17 17:06:00,68.9,5.2,29.60,WNW,284,10.0,22.0,8,0.00,,,0.00,LWC V2.11 B50,2013-03-17 23:06:00,
2013-03-17 17:11:00,69.0,7.8,29.60,WNW,296,19.0,19.0,9,0.00,,,0.00,LWC V2.11 B50,2013-03-17 23:11:00,
2013-03-17 17:16:00,69.0,5.3,29.60,NW,305,14.0,15.0,8,0.00,,,0.00,LWC V2.11 B50,2013-03-17 23:16:00,
2013-03-17 17:21:00,69.1,5.3,29.60,WNW,294,12.0,22.0,8,0.00,,,0.00,LWC V2.11 B50,2013-03-17 23:21:00,
2013-03-17 17:26:00,69.1,2.4,29.59,WNW,287,5.0,14.0,7,0.00,,,0.00,LWC V2.11 B50,2013-03-17 23:26:00,
2013-03-17 17:31:00,69.4,5.6,29.60,West,274,4.0,15.0,8,0.00,,,0.00,LWC V2.11 B50,2013-03-17 23:31:00,
2013-03-17 17:36:00,69.3,5.5,29.60,West,280,8.0,16.0,8,0.00,,,0.00,LWC V2.11 B50,2013-03-17 23:36:00,
2013-03-17 17:41:00,69.4,-4.4,29.60,WNW,299,9.0,18.0,5,0.00,,,0.00,LWC V2.11 B50,2013-03-17 23:41:00,
2013-03-17 17:46:00,69.3,-4.5,29.61,WSW,257,11.0,19.0,5,0.00,,,0.00,LWC V2.11 B50,2013-03-17 23:46:00,
2013-03-17 17:51:00,69.0,-0.9,29.60,NW,313,6.0,12.0,6,0.00,,,0.00,LWC V2.11 B50,2013-03-17 23:51:00,
2013-03-17 17:56:00,68.4,-1.3,29.60,NNE,24,13.0,17.0,6,0.00,,,0.00,LWC V2.11 B50,2013-03-17 23:56:00,
2013-03-17 18:01:00,67.9,1.6,29.61,West,271,6.0,15.0,7,0.00,,,0.00,LWC V2.11 B50,2013-03-18 00:01:00,
2013-03-17 18:06:00,67.9,1.6,29.61,NW,316,6.0,11.0,7,0.00,,,0.00,LWC V2.11 B50,2013-03-18 00:06:00,
2013-03-17 18:11:00,67.9,-10.0,29.61,NW,317,9.0,21.0,4,0.00,,,0.00,LWC V2.11 B50,2013-03-18 00:11:00,
2013-03-17 18:16:00,67.9,-15.8,29.61,NW,310,11.0,26.0,3,0.00,,,0.00,LWC V2.11 B50,2013-03-18 00:16:00,
2013-03-17 18:21:00,67.9,-15.8,29.61,NNW,336,12.0,20.0,3,0.00,,,0.00,LWC V2.11 B50,2013-03-18 00:21:00,
2013-03-17 18:26:00,67.8,-15.8,29.61,WNW,285,11.0,19.0,3,0.00,,,0.00,LWC V2.11 B50,2013-03-18 00:26:00,
2013-03-17 18:31:00,67.6,-16.0,29.61,WNW,289,9.0,17.0,3,0.00,,,0.00,LWC V2.11 B50,2013-03-18 00:31:00,
2013-03-17 18:36:00,67.3,-16.2,29.62,WNW,296,8.0,14.0,3,0.00,,,0.00,LWC V2.11 B50,2013-03-18 00:36:00,
2013-03-17 18:41:00,67.0,-16.4,29.62,WNW,300,14.0,21.0,3,0.00,,,0.00,LWC V2.11 B50,2013-03-18 00:41:00,
2013-03-17 18:46:00,66.8,-16.5,29.62,NW,311,9.0,17.0,3,0.00,,,0.00,LWC V2.11 B50,2013-03-18 00:46:00,
2013-03-17 18:51:00,66.4,-11.1,29.62,NNW,331,11.0,13.0,4,0.00,,,0.00,LWC V2.11 B50,2013-03-18 00:51:00,
2013-03-17 18:56:00,66.1,-11.3,29.63,WNW,288,6.0,12.0,4,0.00,,,0.00,LWC V2.11 B50,2013-03-18 00:56:00,
2013-03-17 19:01:00,65.8,-11.5,29.62,NW,304,7.0,16.0,4,0.00,,,0.00,LWC V2.11 B50,2013-03-18 01:01:00,
2013-03-17 19:06:00,65.5,-11.7,29.63,WNW,302,7.0,11.0,4,0.00,,,0.00,LWC V2.11 B50,2013-03-18 01:06:00,
2013-03-17 19:11:00,65.2,-7.4,29.62,NW,325,7.0,13.0,5,0.00,,,0.00,LWC V2.11 B50,2013-03-18 01:11:00,
2013-03-17 19:16:00,64.8,-7.7,29.62,NW,322,8.0,10.0,5,0.00,,,0.00,LWC V2.11 B50,2013-03-18 01:16:00,
2013-03-17 19:21:00,64.3,-8.1,29.63,WNW,300,12.0,12.0,5,0.00,,,0.00,LWC V2.11 B50,2013-03-18 01:21:00,
2013-03-17 19:26:00,63.9,-8.3,29.63,WNW,293,4.0,7.0,5,0.00,,,0.00,LWC V2.11 B50,2013-03-18 01:26:00,
2013-03-17 19:31:00,63.6,-8.5,29.63,WNW,294,3.0,10.0,5,0.00,,,0.00,LWC V2.11 B50,2013-03-18 01:31:00,
2013-03-17 19:36:00,63.2,-8.8,29.63,WNW,291,1.0,7.0,5,0.00,,,0.00,LWC V2.11 B50,2013-03-18 01:36:00,
2013-03-17 19:41:00,62.9,-5.3,29.63,West,276,3.0,10.0,6,0.00,,,0.00,LWC V2.11 B50,2013-03-18 01:41:00,
2013-03-17 19:46:00,62.9,-5.3,29.64,WNW,302,2.0,8.0,6,0.00,,,0.00,LWC V2.11 B50,2013-03-18 01:46:00,
2013-03-17 19:51:00,62.8,-5.4,29.64,NW,317,6.0,7.0,6,0.00,,,0.00,LWC V2.11 B50,2013-03-18 01:51:00,
2013-03-17 19:56:00,62.5,-5.6,29.65,NNW,333,8.0,8.0,6,0.00,,,0.00,LWC V2.11 B50,2013-03-18 01:56:00,
2013-03-17 20:01:00,62.1,-2.7,29.65,NW,305,3.0,9.0,7,0.00,,,0.00,LWC V2.11 B50,2013-03-18 02:01:00,
2013-03-17 20:06:00,61.5,-3.1,29.66,West,279,5.0,6.0,7,0.00,,,0.00,LWC V2.11 B50,2013-03-18 02:06:00,
2013-03-17 20:11:00,60.9,-3.6,29.66,NW,324,3.0,5.0,7,0.00,,,0.00,LWC V2.11 B50,2013-03-18 02:11:00,
2013-03-17 20:16:00,60.5,-3.9,29.66,WNW,300,0.0,7.0,7,0.00,,,0.00,LWC V2.11 B50,2013-03-18 02:16:00,
2013-03-17 20:21:00,60.1,-1.4,29.66,WNW,285,1.0,4.0,8,0.00,,,0.00,LWC V2.11 B50,2013-03-18 02:21:00,
2013-03-17 20:26:00,60.0,-1.5,29.67,NW,308,3.0,5.0,8,0.00,,,0.00,LWC V2.11 B50,2013-03-18 02:26:00,
2013-03-17 20:31:00,59.9,-1.5,29.67,WNW,300,1.0,3.0,8,0.00,,,0.00,LWC V2.11 B50,2013-03-18 02:31:00,
2013-03-17 20:36:00,59.6,-1.8,29.67,WNW,298,1.0,4.0,8,0.00,,,0.00,LWC V2.11 B50,2013-03-18 02:36:00,
2013-03-17 20:41:00,59.3,-2.0,29.67,NW,322,2.0,2.0,8,0.00,,,0.00,LWC V2.11 B50,2013-03-18 02:41:00,
2013-03-17 20:46:00,58.8,0.1,29.68,WNW,300,1.0,2.0,9,0.00,,,0.00,LWC V2.11 B50,2013-03-18 02:46:00,
2013-03-17 20:51:00,58.2,-0.3,29.68,NW,304,1.0,2.0,9,0.00,,,0.00,LWC V2.11 B50,2013-03-18 02:51:00,
2013-03-17 20:56:00,57.8,-0.6,29.68,NW,305,0.0,3.0,9,0.00,,,0.00,LWC V2.11 B50,2013-03-18 02:56:00,
2013-03-17 21:01:00,57.4,-0.9,29.69,West,274,3.0,6.0,9,0.00,,,0.00,LWC V2.11 B50,2013-03-18 03:01:00,
2013-03-17 21:06:00,57.1,-1.2,29.69,WNW,300,2.0,5.0,9,0.00,,,0.00,LWC V2.11 B50,2013-03-18 03:06:00,
2013-03-17 21:11:00,56.7,-1.5,29.70,WNW,295,1.0,5.0,9,0.00,,,0.00,LWC V2.11 B50,2013-03-18 03:11:00,
2013-03-17 21:16:00,56.2,0.4,29.70,WNW,293,2.0,6.0,10,0.00,,,0.00,LWC V2.11 B50,2013-03-18 03:16:00,
2013-03-17 21:21:00,56.2,0.4,29.71,NW,311,2.0,6.0,10,0.00,,,0.00,LWC V2.11 B50,2013-03-18 03:21:00,
2013-03-17 21:26:00,56.3,0.5,29.71,NW,317,4.0,7.0,10,0.00,,,0.00,LWC V2.11 B50,2013-03-18 03:26:00,
2013-03-17 21:31:00,56.4,0.5,29.72,NW,324,5.0,6.0,10,0.00,,,0.00,LWC V2.11 B50,2013-03-18 03:31:00,
2013-03-17 21:36:00,55.9,0.2,29.72,NW,315,2.0,6.0,10,0.00,,,0.00,LWC V2.11 B50,2013-03-18 03:36:00,
2013-03-17 21:41:00,55.2,1.6,29.72,NNW,327,2.0,4.0,11,0.00,,,0.00,LWC V2.11 B50,2013-03-18 03:41:00,
2013-03-17 21:46:00,54.6,1.2,29.73,NW,311,6.0,6.0,11,0.00,,,0.00,LWC V2.11 B50,2013-03-18 03:46:00,
2013-03-17 21:51:00,54.0,0.7,29.73,NW,305,4.0,6.0,11,0.00,,,0.00,LWC V2.11 B50,2013-03-18 03:51:00,
2013-03-17 21:56:00,53.3,2.0,29.73,NW,306,2.0,7.0,12,0.00,,,0.00,LWC V2.11 B50,2013-03-18 03:56:00,
2013-03-17 22:00:00,52.9,1.7,29.73,WNW,291,3.0,6.0,12,0.00,,,0.00,LWC V2.11 B50,2013-03-18 04:00:00,
2013-03-17 22:05:00,52.7,3.3,29.73,NW,310,4.0,6.0,13,0.00,,,0.00,LWC V2.11 B50,2013-03-18 04:05:00,
2013-03-17 22:10:00,52.4,3.0,29.73,NW,306,3.0,6.0,13,0.00,,,0.00,LWC V2.11 B50,2013-03-18 04:10:00,
2013-03-17 22:15:00,52.0,2.7,29.74,WNW,300,3.0,5.0,13,0.00,,,0.00,LWC V2.11 B50,2013-03-18 04:15:00,
2013-03-17 22:20:00,51.5,3.9,29.74,NW,311,3.0,6.0,14,0.00,,,0.00,LWC V2.11 B50,2013-03-18 04:20:00,
2013-03-17 22:25:00,51.4,3.8,29.74,NW,317,0.0,3.0,14,0.00,,,0.00,LWC V2.11 B50,2013-03-18 04:25:00,
2013-03-17 22:30:00,51.1,3.6,29.74,West,274,3.0,4.0,14,0.00,,,0.00,LWC V2.11 B50,2013-03-18 04:30:00,
2013-03-17 22:35:00,51.1,3.6,29.74,West,275,6.0,7.0,14,0.00,,,0.00,LWC V2.11 B50,2013-03-18 04:35:00,
2013-03-17 22:40:00,50.6,3.2,29.75,West,275,3.0,5.0,14,0.00,,,0.00,LWC V2.11 B50,2013-03-18 04:40:00,
2013-03-17 22:45:00,50.6,3.2,29.75,WNW,288,1.0,3.0,14,0.00,,,0.00,LWC V2.11 B50,2013-03-18 04:45:00,
2013-03-17 22:46:00,50.7,3.3,29.75,WNW,285,2.0,3.0,14,0.00,,,0.00,LWC V2.11 B50,2013-03-18 04:46:00,
2013-03-17 22:51:00,50.4,1.4,29.75,NW,304,2.0,5.0,13,0.00,,,0.00,LWC V2.11 B50,2013-03-18 04:51:00,
2013-03-17 22:56:00,50.0,2.7,29.75,NW,315,2.0,4.0,14,0.00,,,0.00,LWC V2.11 B50,2013-03-18 04:56:00,
2013-03-17 23:01:00,49.8,2.6,29.76,NW,312,2.0,5.0,14,0.00,,,0.00,LWC V2.11 B50,2013-03-18 05:01:00,
2013-03-17 23:06:00,49.4,2.2,29.75,WNW,298,1.0,2.0,14,0.00,,,0.00,LWC V2.11 B50,2013-03-18 05:06:00,
2013-03-17 23:11:00,50.0,2.7,29.76,WSW,257,4.0,4.0,14,0.00,,,0.00,LWC V2.11 B50,2013-03-18 05:11:00,
2013-03-17 23:16:00,51.1,3.6,29.76,West,274,2.0,5.0,14,0.00,,,0.00,LWC V2.11 B50,2013-03-18 05:16:00,
2013-03-17 23:21:00,51.1,3.6,29.76,WNW,298,2.0,5.0,14,0.00,,,0.00,LWC V2.11 B50,2013-03-18 05:21:00,
2013-03-17 23:26:00,51.0,1.9,29.76,WNW,284,1.0,7.0,13,0.00,,,0.00,LWC V2.11 B50,2013-03-18 05:26:00,
2013-03-17 23:31:00,50.7,1.7,29.76,WNW,293,6.0,6.0,13,0.00,,,0.00,LWC V2.11 B50,2013-03-18 05:31:00,
2013-03-17 23:36:00,50.9,1.8,29.76,WNW,298,2.0,6.0,13,0.00,,,0.00,LWC V2.11 B50,2013-03-18 05:36:00,
2013-03-17 23:41:00,51.2,2.1,29.76,West,269,4.0,6.0,13,0.00,,,0.00,LWC V2.11 B50,2013-03-18 05:41:00,
2013-03-17 23:46:00,51.4,2.2,29.77,NW,306,6.0,6.0,13,0.00,,,0.00,LWC V2.11 B50,2013-03-18 05:46:00,
2013-03-17 23:51:00,51.4,2.2,29.77,West,267,4.0,5.0,13,0.00,,,0.00,LWC V2.11 B50,2013-03-18 05:51:00,
2013-03-17 23:56:00,51.4,0.5,29.77,West,280,3.0,6.0,12,0.00,,,0.00,LWC V2.11 B50,2013-03-18 05:56:00,